Regional Weather Roundup
Issued by NWS

Home | Current Version | Previous Version | Text Only | Print | Product List | Glossary On
Versions: 1 2 3 4 5 6 7 8 9 10 11 12 13 14 15 16 17 18 19 20 21 22 23 24 25 26 27 28 29 30 31 32 33 34 35 36 37 38 39 40 41 42 43 44 45 46 47 48 49 50
000
ASUS42 KTBW 040717
RWRFL
FLORIDA REGIONAL WEATHER ROUNDUP
NATIONAL WEATHER SERVICE TAMPA BAY RUSKIN FL
300 AM EDT SAT JUL 04 2015

NOTE: "FAIR" INDICATES FEW OR NO CLOUDS BELOW 12,000 FEET WITH NO
SIGNIFICANT WEATHER AND/OR OBSTRUCTIONS TO VISIBILITY.


FLZ001>010-012>015-112-114-115-040800-
PANHANDLE FLORIDA

CITY           SKY/WX    TMP DP  RH WIND       PRES   REMARKS
PENSACOLA      CLEAR     81  76  84 SW8       30.04F
PENSACOLA NAS  CLEAR     80  75  84 SW3       30.03F
MILTON NAS     CLEAR     78  75  90 SW7       30.04
CRESTVIEW      PTCLDY    76  75  97 CALM      30.06F
DUKE FIELD     FAIR      79  75  90 SW6       30.04F
VALPARAISO     MOCLDY    82  76  80 SW7       30.04F
MARY ESTHER    PTCLDY    82  76  82 SW7       30.03F
TRI COUNTY     FAIR      76  75  97 CALM      30.06S
PANAMA CITY    FAIR      79  76  90 S6        30.05S
TYNDALL AFB    PTCLDY    82  76  82 SW10      30.06S
APALACHICOLA   CLEAR     85  75  72 SW9       30.05F

STATION/POSITION SKY/WX   TEMP    WIND        PRES    WAVE   SWELL
                          AIR SEA DIR/SP/G            HT/PER HT/PER
                          (F)     (DEG/KT/KT) (MB)    (FT/S) (FT/S)
30.1N   87.6W              84 83  210/ 12/ 16 1016.4F   2/ 7   2/ 7
29.2N   88.2W              84 84  190/ 12/ 14 1017.8F   1/ 5
28.8N   86.0W              84 85  190/  8/ 10 1018.2F   2/ 6   2/ 6
PANAMA CITY BEAC           83 83  210/  9/ 11 1017.7S
CAPE SAN BLAS    NOT AVBL
TOWER C                    83     200/  9/ 10 1017.7F
28.5N   84.5W              85 86  180/  8/  8 1017.9F   1/ 4   2/ 4

$$
FLZ011-016>038-118-127-128-134-139-239-040800-
NORTH FLORIDA

CITY           SKY/WX    TMP DP  RH WIND       PRES   REMARKS
MARIANNA       LGT RAIN  76  76 100 SW3       30.05R
TALLAHASSEE    CLEAR     77  73  87 CALM      30.05F
PERRY            N/A     74  74 100 CALM      30.06S
CROSS CITY       N/A     76  74  93 S5        30.06F
LAKE CITY      FAIR      73  72  94 CALM      30.07S
GAINESVILLE    PTCLDY    72  68  87 CALM      30.08F
MAYPORT NAS    CLEAR     78  71  79 SW6       30.06F
JACKSONVILLE   MOCLDY    76  72  87 SW6       30.06F
JAX NAS        CLEAR     82  69  64 S8        30.08S
JAX CRAIG      CLEAR     79  70  74 SW6       30.07S
JAX CECIL      CLEAR     73  72  94 CALM      30.07F
FERNANDINA BEA FAIR      81  72  74 SW6       30.05S
ST AUGUSTINE   PTCLDY    76  71  85 W3        30.08S

STATION/POSITION SKY/WX   TEMP    WIND        PRES    WAVE   SWELL
                          AIR SEA DIR/SP/G            HT/PER HT/PER
                          (F)     (DEG/KT/KT) (MB)    (FT/S) (FT/S)
SHELL POINT                83     220/ 10/ 12   N/A
KEATON BEACH               83     220/ 10/ 12 1017.9F
CEDAR KEY                  84     210/  8/ 10 1018.4F
FERNANDINA                 81 79  210/  7/  8 1017.4F
30.7N   81.3W                 76                N/A     2/ 9
MAYPORT                    80 77  220/  6/  9 1018.4F
31.4N   80.9W              80 79  210/ 16/ 17 1017.3S   3/ 5   2/ 9
ST AUGUSTINE               76 73  230/  5/  7 1019.1F

$$
FLZ040-043>046-052-053-057-058-063-144-040800-
INTERIOR CENTRAL FLORIDA

CITY           SKY/WX    TMP DP  RH WIND       PRES   REMARKS
OCALA          MOCLDY    72  66  83 CALM      30.08F
THE VILLAGES     N/A    N/A N/A N/A CALM      29.98F
LEESBURG       MOCLDY    74  70  87 CALM      30.09F
SANFORD        CLOUDY    75  67  76 SE3       30.08F
ORLANDO EXEC   CLOUDY    76  71  85 CALM      30.08F
ORLANDO INTL   CLOUDY    75  72  90 SE3       30.09S
WINTER HAVEN   PTCLDY    75  72  90 CALM      30.10F
LAKELAND       PTCLDY    72  72 100 MISG      30.10S
BARTOW         FAIR      72 N/A N/A CALM      30.11R
OKEECHOBEE     CLEAR     70  68  94 W3        30.09R

$$
FLZ041-047-054-059-064-141-147-040800-
EAST CENTRAL FLORIDA

CITY           SKY/WX    TMP DP  RH WIND       PRES   REMARKS
DAYTONA BEACH  CLOUDY    74  68  81 S3        30.08F
DELAND           N/A     75  68  78 CALM      30.09F
JFK SPACE CTR  PTCLDY    73  70  88 W3        30.08S
CAPE CANAVERAL PTCLDY    75  72  88 W5        30.08S
PATRICK AFB    MOCLDY    77  72  85 W12       30.08S
MELBOURNE      MOCLDY    74  70  87 SW5       30.09R
VERO BEACH     CLEAR     74  68  81 CALM      30.08F
FT PIERCE      CLEAR     73  69  87 CALM      30.08F
STUART         PTCLDY    73  72  94 CALM      30.09F

STATION/POSITION SKY/WX   TEMP    WIND        PRES    WAVE   SWELL
                          AIR SEA DIR/SP/G            HT/PER HT/PER
                          (F)     (DEG/KT/KT) (MB)    (FT/S) (FT/S)
28.5N   80.2W              80 81  210/  4/  4 1019.3F
28.9N   78.5W              83 84  180/ 10/ 12 1019.6F
TRIDENT PIER               76 81  150/  4/  5 1019.3F
28.4N   80.5W                 78                N/A     2/ 9
27.5N   80.2W                 79                N/A     1/ 8

$$
FLZ050-056-061-142-242-148-248-149-249-151-251-155-255-
160-260-040800-
WEST CENTRAL FLORIDA

CITY           SKY/WX    TMP DP  RH WIND       PRES   REMARKS
CRYSTAL RIVER  FAIR      72  68  88 CALM      30.08F
INVERNESS        N/A    N/A N/A N/A MISG        N/A
BROOKSVILLE    MOCLDY    72  69  90 CALM      30.09F
ZEPHYRHILLS    FAIR      68  68 100 CALM      30.09F
CLEARWATER     CLOUDY    78  72  81 S5        30.08F
TAMPA INTL     MOCLDY    78  69  73 SE3       30.09F
TAMPA EXEC     PTCLDY    73  70  88 CALM      30.09F
PLANT CITY     PTCLDY    75  73  94 SE3       30.11S
MACDILL AFB    CLOUDY    76  73  91 SE3       30.08F
PETER O KNIGHT MOCLDY    79  72  78 S6        30.09S
ST PETERSBURG  CLOUDY    79  71  76 S7        30.07F
SARASOTA       CLOUDY    74  69  85 CALM      30.07F
VENICE         FAIR      75  70  83 E6        30.08S

STATION/POSITION SKY/WX   TEMP    WIND        PRES    WAVE   SWELL
                          AIR SEA DIR/SP/G            HT/PER HT/PER
                          (F)     (DEG/KT/KT) (MB)    (FT/S) (FT/S)
CEDAR KEY                  84     210/  8/ 10 1018.4F
28.5N   84.5W              85 86  180/  8/  8 1017.9F   1/ 4   2/ 4
27.3N   84.2W                 87                N/A     1/ 5
CLEARWATER BEACH           80 88  140/  5/  6 1018.9F
MIDDLE TAMPA BAY                  150/  9/ 11 1019.2R
VENICE                     76 89   90/  6/  8 1018.3F

$$
FLZ066-069-070-075>078-162-262-165-265-040800-
SOUTHWEST FLORIDA AND KEYS

CITY           SKY/WX    TMP DP  RH WIND       PRES   REMARKS
PUNTA GORDA    MOCLDY    73  72  96 E3        30.09F
FT MYERS       PTCLDY    73  73 100 CALM      30.06F
SOUTHWEST INTL CLEAR     73  71  93 CALM      30.07F
NAPLES         CLEAR     73  72  96 NE7       30.06F
MARCO ISLAND   SUNNY     73  66  78 E6        30.07F
MARATHON       CLEAR     84  76  76 E8        30.06F
KEY WEST NAS   PTCLDY    84  75  74 E13       30.05F
KEY WEST INTL  PTCLDY    84  77  79 E14       30.06F

STATION/POSITION SKY/WX   TEMP    WIND        PRES    WAVE   SWELL
                          AIR SEA DIR/SP/G            HT/PER HT/PER
                          (F)     (DEG/KT/KT) (MB)    (FT/S) (FT/S)
VENICE                     76 89   90/  6/  8 1018.3F
NAPLES                        88              1019.7F
26.0N   85.6W              84 85  110/ 12/ 14 1017.7F   3/ 8   2/ 8
DRY TORTUGAS               84      70/ 14/ 16 1018.0F
NW FL BAY                  80      50/ 11/ 12 1019.0
SAND KEY                   84      90/ 13/ 16 1017.7F
SOMBRERO KEY               83      70/ 10/ 11 1018.4F
LONG KEY                   84 87  110/  9/ 10 1018.7F
MOLASSES REEF              83 85  120/  9/ 10 1018.1F

$$
FLZ067-068-071>074-168-172>174-040800-
SOUTHEAST FLORIDA

CITY           SKY/WX    TMP DP  RH WIND       PRES   REMARKS
W PALM BEACH   CLOUDY    78  71  79 CALM      30.08F
FT LAUDER-EXEC CLOUDY    81  75  82 S5        30.07F
FT LAUDERDALE  MOCLDY    79  75  87 W3        30.07F
POMPANO BEACH  CLOUDY    83  73  72 SE7       30.07F
PEMBROKE PINES MOCLDY    78  75  90 CALM      30.09F
OPA LOCKA      MOCLDY    79  71  76 CALM      30.08F
MIAMI          MOCLDY    77  71  82 W3        30.07F
WEST KENDALL   CLEAR     75  73  93 CALM      30.07F
HOMESTEAD      CLEAR     78  73  83 NW3       30.07F

STATION/POSITION SKY/WX   TEMP    WIND        PRES    WAVE   SWELL
                          AIR SEA DIR/SP/G            HT/PER HT/PER
                          (F)     (DEG/KT/KT) (MB)    (FT/S) (FT/S)
PORT EVERGLADES            81     180/  4/  6 1018.9F
VIRGINIA KEY               83 88   70/  3/  3 1018.5F
LAKE WORTH                 78 86  290/  5/  5 1018.9F
SETTLEMENT POINT           81     130/  7/  8 1019.5F

$$




USA.gov is the U.S. government's official web portal to all federal, state and local government web resources and services.